* Astronomy

Members Login
Username 
 
Password 
    Remember Me  
Post Info TOPIC: TNO 2012 UT68


L

Posts: 131433
Date:
TNO 2012 UT68
Permalink  
 


Orbital elements:
2012 UT68
Epoch 2012 Sept. 30.0 TT = JDT 2456200.5                MPC
M 356.04549              (2000.0)            P               Q
n   0.01070014     Peri.    5.62111     +0.65197461     -0.73556394
a  20.3959078      Node    43.87218     +0.68491583     +0.46717546
e   0.3810605      Incl.   15.40059     +0.32529897     +0.49060451
P  92.11           H    9.4           G   0.15           U   4

MPEC 2012 - U81

Ed ~ 35 km - 75 km wide



__________________
Page 1 of 1  sorted by
 
Quick Reply

Please log in to post quick replies.



Create your own FREE Forum
Report Abuse
Powered by ActiveBoard